VANGUARD DEB, 1576

Orbit data source: Space-Track

VANGUARD DEB, 1576 is space debris in LEO originally from a launch on Mon, 17 Mar 1958 UTC launched from the Air Force Eastern Test Range (AFETR). Debris objects in space refer to the collection of defunct objects orbiting the Earth. Examples of debris include non-operational satellites, rocket bodies, and fragments generated from explosions, collisions, or faulty payload assembly.

Loading next visibility...
VANGUARD DEB details
Identifier
1576, 1958-002C
Orbit
LEO
Last TLE update13 hours ago
Origin
Flag of USNRL (US)
ManufacturerNRL
MissionSpacecraft
Bus & MotorUnknown
MassUnknown
Launch date (UTC)
1958-03-17 (67 years ago)
Launch vehicleUnknown
Launch site
Air Force Eastern Test Range (AFETR)
Object type
Payload
Rocket body
Debris
Shape & HBRUnknown
Radar Cross SectionSmall (<0.1 m²)

Expand to show TLE details & history

TLE from 13 hours ago
0 VANGUARD DEB
1 01576U 58002C   25024.46832545  .00014482  00000-0  13444-1 0  9990
2 01576  34.2206 167.7201 1395802 184.1152 174.6799 11.79608420741904
Epoch: 2025-01-24T11:14Z
Definitive object data (Epoch: 2025-01-24T11:14:23.318Z)
Latitude-0.00003°
Longitude-124.90816°
Altitude2,906.262 km
Speed6.082 km/s
True Right ascension11h 10m 52s
True Declination0° 00' 00"
Sunlit
Object was in daylight at TLE epoch
Visualization TLE readout
Latitude28.62874°
Longitude0.14308°
Altitude1,170.327 km
Speed7.536 km/s
Apparent Right ascension17h 04m 53s
Apparent Declination-3° 17' 08"
Sunlit
Object is in daylight
Visualization observer readout
Local Sidereal Time01:30:05
Azimuth292.621° NW
Elevation-29.345°
Doppler factor1
Orbital elements
Apogee altitude2,914.613 km
Perigee altitude638.189 km
Semi-major axis8,154.538 km
Eccentricity0.1395802
Inclination34.2206°
RAAN167.7201°
Arg. of periapsis184.1152°
True anomaly175.94234°
Mean anomaly174.6799°
Eccentric anomaly175.33089°
Mean motion2.94743 °/min
BSTAR0.013444
Orbital period122.14 mins
Loading maneuver chart data...
Loading historical data...
Loading historical data...
Loading historical data...
Loading historical data...
Loading historical data...
Loading historical data...
Loading historical data...
Other satellites on launch #2 in the year 1958 (1958-03-17 UTC)

VANGUARD DEB Visibility forecast

Observer location: undefined°, undefined

Span
Click to sort rows by Start time (UTC) header in descending order
Start Az.
Max El. time (UTC)
Max El. Az.
Max El.
End time (UTC)
End Az.
18 mins2025-01-25 09:37:18.172Z172.571° S2025-01-25 09:47:18.172Z136.973° SSE17.129°2025-01-25 09:55:18.172Z105.803° ESE
25 mins2025-01-25 11:44:18.172Z212.597° SW2025-01-25 11:58:18.172Z151.973° SSE33.58°2025-01-25 12:09:18.172Z90.902° ESE
24 mins2025-01-25 13:55:18.172Z244.342° WSW2025-01-25 14:09:18.172Z178.14° S41.475°2025-01-25 14:19:18.172Z93.877° ESE
19 mins2025-01-25 16:09:18.172Z264.805° W2025-01-25 16:20:18.172Z196.634° SSW41.307°2025-01-25 16:28:18.172Z112.477° ESE
11 mins2025-01-25 18:23:18.172Z264.102° W2025-01-25 18:29:18.172Z217.429° SW27.418°2025-01-25 18:34:18.172Z158.557° S
|